Terminal Aerodrome Forecast
Issued by NWS

Home | Current Version | Previous Version | Text Only | Print | Product List | Glossary On
Versions: 1 2 3 4 5 6 7 8 9 10 11 12 13
000
FTUS44 KMAF 021120
TAFPEQ
TAF
KPEQ 021120Z 0212/0312 10007KT P6SM SCT250
     FM021600 09010G20KT P6SM SCT040 SCT250
     FM030200 09009KT P6SM SCT200=

USA.gov is the U.S. government's official web portal to all federal, state and local government web resources and services.